Location: Piotrkow Trybunalski
(51.4000°N, 19.6830°E)
Time: 05:46:59
(UTC+02:00)

STRAND 1 - Pass Details

Date: 23 February 2024
Orbit: 764 x 779 km, 98.4° (Epoch: 24 April)

Event Time Altitude Azimuth Distance (km) Brightness Sun altitude
Rises 20:31:02 0° 3° (N) 3,275 ? -31.4°
Reaches altitude 10° 20:34:40 10° 336° (NNW) 2,339 ? -31.9°
Maximum altitude 20:36:53 13° 311° (NW) 2,138 ? -32.2°
Drops below altitude 10° 20:39:05 10° 285° (WNW) 2,330 ? -32.5°
Sets 20:42:42 0° 258° (WSW) 3,249 ? -33.0°
